Location: Maccacari
(45.1333°N, 11.1333°E)
Time: 21:57:10
(UTC+00:00)

SR - Visible Passes

Search period start: 21 January 2021 00:00
Search period end: 31 January 2021 00:00
Orbit: 575 x 880 km, 66.7° (Epoch: 21 January)

Date Brightness Start Highest point End Pass type
(mag) Time Alt. Az. Time Alt. Az. Time Alt. Az.
21 Jan ? 04:33:51 25° SSW 04:36:35 75° ESE 04:41:47 10° NE visible
22 Jan ? 03:46:37 36° SE 03:47:01 37° ESE 03:51:43 10° NE visible
22 Jan ? 05:26:05 18° WSW 05:29:07 35° NW 05:33:57 10° NNE visible
23 Jan ? 02:59:03 17° E 02:59:03 17° E 03:01:07 10° ENE visible
23 Jan ? 04:38:30 57° W 04:39:06 62° NW 04:44:21 10° NNE visible
24 Jan ? 03:50:43 47° NE 03:50:43 47° NE 03:54:33 10° NE visible
24 Jan ? 05:30:09 19° WNW 05:32:01 23° NW 05:36:12 10° NNE visible
25 Jan ? 03:02:47 19° ENE 03:02:47 19° ENE 03:04:28 10° NE visible
25 Jan ? 04:42:12 36° NW 04:42:12 36° NW 04:46:45 10° NNE visible
26 Jan ? 03:54:09 33° NNE 03:54:09 33° NNE 03:57:08 10° NNE visible
26 Jan ? 05:33:33 14° NW 05:35:05 16° NNW 05:38:19 10° N visible
27 Jan ? 03:05:59 18° NE 03:05:59 18° NE 03:07:19 10° NE visible
27 Jan ? 04:45:24 23° NNW 04:45:24 23° NNW 04:49:03 10° NNE visible
28 Jan ? 03:57:10 24° N 03:57:10 24° N 03:59:34 10° NNE visible
28 Jan ? 05:36:34 10° NW 05:38:17 11° NNW 05:40:05 10° N visible
29 Jan ? 03:08:52 16° NNE 03:08:52 16° NNE 03:09:55 10° NNE visible
29 Jan ? 04:48:17 16° NNW 04:48:17 16° NNW 04:51:10 10° N visible
30 Jan ? 03:59:56 18° N 03:59:56 18° N 04:01:52 10° NNE visible
